[[{"header":{"parameterUnit":"m.s-1","parameterCategory":2,"la1":30.2991,"la2":30.254,"lo1":-89.0895,"lo2":-89.0444,"dy":0.0017,"dx":0.0017,"nx":28,"ny":28,"refTime":"2025-03-19T09:00:00:Z","depth":"0","parameterNumber":2,"parameterNumberName":"U-component_of_CURRENTS"},"data":[0,0,0,0,0,0,0,0,0,0,0,0,0,0,0,0,0,0,0,0,0,0,0,0,0,0,0,0,0,0,0,0,0,0,0,0,0,0,0,0,0,0,0,0,0,0,0,0,0,0,0,0,0,0,0,0,0,0,-0.2134,-0.2135,0,-0.2121,-0.2121,-0.2121,-0.2091,-0.2091,-0.209,-0.209,-0.2027,-0.2026,-0.2024,0,0,0,0,0,0,0,0,0,0,0,0,0,-0.2091,-0.2092,-0.2134,-0.2135,-0.2135,-0.2122,-0.2121,-0.212,-0.2091,-0.2091,-0.209,-0.209,-0.2028,-0.2026,-0.2024,0,0,0,0,0,0,0,0,0,0,0,0,0,-0.2094,-0.2093,-0.2134,-0.2121,-0.212,-0.2122,-0.2121,-0.212,-0.2091,-0.2091,-0.209,-0.209,-0.2028,-0.2026,-0.2024,-0.2018,0,0,-0.2017,-0.2016,0,0,0,0,0,0,0,0,-0.2094,-0.2095,-0.2123,-0.2122,-0.2121,-0.2111,-0.2083,-0.2085,-0.2091,-0.2098,-0.209,-0.209,-0.2053,-0.2049,-0.2043,-0.2015,-0.2013,-0.2017,-0.2016,-0.2015,-0.2014,0,0,0,0,0,0,0,-0.2094,-0.2095,-0.2125,-0.2123,-0.2122,-0.2102,-0.2102,-0.2083,-0.2074,-0.2097,-0.2096,-0.2101,-0.2052,-0.2045,-0.2041,-0.2012,-0.2017,-0.2015,-0.2014,-0.2013,-0.1988,-0.1989,0,0,0,0,0,0,-0.2106,-0.2095,-0.2126,-0.2125,-0.2111,-0.2104,-0.2103,-0.2111,-0.2075,-0.2071,-0.2101,-0.21,-0.2049,-0.2043,-0.2039,-0.2044,-0.2015,-0.2013,-0.2012,-0.1988,-0.1988,-0.1989,0,0,0,0,0,0,-0.2105,-0.2109,-0.2126,-0.2113,-0.2114,-0.2106,-0.2114,-0.2111,-0.2105,-0.208,-0.2073,-0.2099,-0.2048,-0.2042,-0.2028,-0.204,-0.2012,-0.201,-0.1987,-0.1988,-0.1989,-0.2045,0,0,0,0,0,0,-0.2104,-0.2109,-0.2111,-0.2114,-0.2115,-0.2138,-0.2115,-0.2111,-0.2111,-0.2108,-0.2075,-0.2069,-0.2047,-0.2032,-0.2026,-0.2037,-0.2008,-0.1986,-0.1987,-0.1988,-0.2042,-0.2048,-0.2052,0,0,0,0,0,-0.2103,-0.2113,-0.2111,-0.2115,-0.2122,-0.2139,-0.2138,-0.2127,-0.2111,-0.2117,-0.2092,-0.207,-0.2035,-0.203,-0.2024,-0.2034,-0.1986,-0.1987,-0.1988,-0.204,-0.2047,-0.2052,0,0,0,0,0,0,-0.209,-0.2111,-0.211,-0.2123,-0.2136,-0.2136,-0.2138,-0.2131,-0.2115,-0.2107,-0.2076,-0.2068,-0.2063,-0.2041,-0.2036,-0.2031,-0.2008,-0.2008,-0.2049,-0.2055,-0.206,-0.2067,-0.2007,0,0,0,0,0,-0.2091,-0.2106,-0.2123,-0.2133,-0.2142,-0.2139,-0.2141,-0.2138,-0.213,-0.2123,-0.2102,-0.2078,-0.2064,-0.2053,-0.2038,-0.2032,-0.2005,-0.2035,-0.204,-0.2044,-0.2046,-0.2027,-0.203,-0.1994,-0.1994,-0.1994,0,0,-0.2087,-0.2102,-0.2108,-0.2132,-0.2136,-0.2166,-0.2139,-0.215,-0.2164,-0.2118,-0.212,-0.2096,-0.2067,-0.2064,-0.206,-0.2046,-0.204,-0.2046,-0.205,-0.2049,-0.2029,-0.2032,-0.2035,-0.1995,-0.1995,-0.1994,0,0,-0.2124,-0.2104,-0.215,-0.216,-0.2182,-0.2176,-0.2184,-0.219,-0.2179,-0.2186,-0.2153,-0.2136,-0.2119,-0.2098,-0.2086,-0.2108,-0.2069,-0.2104,-0.2131,-0.2113,-0.2116,-0.2118,-0.2083,-0.2082,-0.2104,-0.2104,-0.2104,0,-0.212,-0.2176,-0.2162,-0.2212,-0.2218,-0.2188,-0.2233,-0.2219,-0.2217,-0.2203,-0.2198,-0.216,-0.2138,-0.2122,-0.2133,-0.2119,-0.2096,-0.2111,-0.212,-0.2121,-0.2122,-0.2086,-0.2084,-0.2107,-0.2106,-0.2106,-0.2106,0,-0.221,-0.2239,-0.226,-0.2308,-0.2311,-0.2332,-0.2322,-0.2308,-0.2286,-0.2273,-0.2253,-0.2222,-0.2195,-0.2191,-0.2171,-0.2164,-0.2141,-0.2131,-0.2105,-0.213,-0.209,-0.2087,-0.2111,-0.211,-0.2109,-0.2108,0,0,-0.2221,-0.2312,-0.2317,-0.2312,-0.2355,-0.2331,-0.2367,-0.236,-0.2336,-0.2331,-0.2314,-0.2298,-0.2261,-0.2245,-0.221,-0.2196,-0.2186,-0.2172,-0.217,-0.2139,-0.2133,-0.2012,-0.1996,-0.2179,-0.2179,-0.2179,-0.21,0,-0.2291,-0.2366,-0.2427,-0.2441,-0.2435,-0.243,-0.2448,-0.2421,-0.24,-0.2365,-0.2325,-0.2281,-0.2286,-0.2246,-0.2252,-0.2196,-0.2181,-0.2208,-0.2113,-0.211,-0.2,-0.199,-0.1925,-0.184,-0.2096,-0.2096,-0.2095,0,-0.2361,-0.2368,-0.2411,-0.2421,-0.2429,-0.2426,-0.2372,-0.2389,-0.236,-0.2357,-0.2338,-0.2302,-0.227,-0.2262,-0.222,-0.2237,-0.2196,-0.2159,-0.2155,-0.202,-0.1982,-0.1858,-0.1824,-0.1809,-0.209,-0.209,-0.2091,0,-0.224,-0.2353,-0.235,-0.235,-0.2367,-0.2348,-0.2346,-0.2335,-0.2253,-0.2291,-0.2221,-0.2278,-0.2184,-0.2213,-0.2159,-0.2184,-0.21,-0.212,-0.1974,-0.1965,-0.1877,-0.1859,-0.1816,-0.2085,-0.2086,-0.2086,-0.2086,0,-0.2216,-0.2195,-0.2262,-0.219,-0.2111,-0.2208,-0.2093,-0.2136,-0.2108,-0.1966,-0.214,-0.2018,-0.2158,-0.2118,-0.2151,-0.2039,-0.2092,-0.1967,-0.1933,-0.1892,-0.1877,-0.1833,-0.1864,-0.2083,-0.2084,-0.2084,-0.2085,0,-0.2007,-0.2106,-0.2028,-0.2037,-0.2004,-0.19,-0.1798,-0.174,-0.1793,-0.1613,-0.1591,-0.1727,-0.1752,-0.1882,-0.1909,-0.1923,-0.1858,-0.1843,-0.1781,-0.174,-0.1589,-0.1626,-0.1547,-0.1501,-0.168,-0.1677,-0.1674,0,-0.1893,-0.1832,-0.1779,-0.1698,-0.166,-0.1528,-0.1444,-0.1493,-0.1416,-0.1366,-0.1265,-0.1302,-0.1293,-0.1382,-0.153,-0.1621,-0.1664,-0.1544,-0.1577,-0.1552,-0.1571,-0.1619,-0.1592,-0.1491,-0.1487,-0.1484,-0.1481,0,-0.1573,-0.1577,-0.151,-0.1353,-0.1234,-0.1117,-0.101,-0.0884,-0.0937,-0.0841,-0.0752,-0.0748,-0.089,-0.1039,-0.1239,-0.1276,-0.1511,-0.1465,-0.147,-0.1432,-0.1454,-0.1402,-0.1571,-0.145,-0.1453,-0.1455,-0.1457,-0.1458,-0.129,-0.1208,-0.1157,-0.1008,-0.0908,-0.08,-0.0662,-0.0604,-0.0455,-0.0352,-0.0347,-0.0328,-0.0615,-0.0927,-0.0968,-0.1118,-0.1201,-0.1148,-0.1198,-0.1251,-0.1195,-0.1269,-0.1087,-0.1088,-0.1089,-0.109,-0.109,0,-0.095,-0.0948,-0.082,-0.0699,-0.0595,-0.0607,-0.0456,-0.0355,-0.0198,-0.0087,0.0011,-0.0115,-0.0358,-0.0632,-0.0941,-0.0919,-0.0945,-0.0926,-0.1022,-0.1009,-0.1091,-0.1068,-0.0834,-0.0834,-0.0834,-0.0834,-0.0834,-0.0834,-0.0768,-0.0647,-0.0658,-0.0453,-0.0393,-0.0247,-0.0179,-0.0048,0.005,0.0181,0.0203,0.0186,-0.0225,-0.0723,-0.0904,-0.0868,-0.0884,-0.0849,-0.0876,-0.0988,-0.1015,-0.1041,-0.1025,-0.0787,-0.0787,-0.0769,-0.0769,-0.0769]},{"header":{"parameterUnit":"m.s-1","parameterCategory":2,"la1":30.2991,"la2":30.254,"lo1":-89.0895,"lo2":-89.0444,"dy":0.0017,"dx":0.0017,"nx":28,"ny":28,"refTime":"2025-03-19T09:00:00:Z","depth":"0","parameterNumber":3,"parameterNumberName":"V-component_of_CURRENTS"},"data":[0,0,0,0,0,0,0,0,0,0,0,0,0,0,0,0,0,0,0,0,0,0,0,0,0,0,0,0,0,0,0,0,0,0,0,0,0,0,0,0,0,0,0,0,0,0,0,0,0,0,0,0,0,0,0,0,0,0,-0.0252,-0.0252,0,-0.0195,-0.0194,-0.0193,-0.0149,-0.0148,-0.0148,-0.0148,-0.0054,-0.0052,-0.005,0,0,0,0,0,0,0,0,0,0,0,0,0,-0.0264,-0.0265,-0.0252,-0.0252,-0.0251,-0.0195,-0.0194,-0.0193,-0.0149,-0.0148,-0.0148,-0.0147,-0.0055,-0.0052,-0.005,0,0,0,0,0,0,0,0,0,0,0,0,0,-0.0238,-0.0265,-0.0252,-0.0222,-0.0219,-0.0195,-0.0194,-0.0193,-0.0149,-0.0148,-0.0148,-0.0147,-0.0055,-0.0052,-0.0049,-0.0042,0,0,-0.004,-0.0038,0,0,0,0,0,0,0,0,-0.024,-0.0238,-0.0227,-0.0224,-0.0221,-0.0178,-0.0164,-0.0141,-0.0149,-0.0175,-0.0148,-0.0147,-0.0093,-0.0087,-0.0077,-0.0037,-0.0033,-0.0039,-0.0037,-0.0036,-0.0035,0,0,0,0,0,0,0,-0.0242,-0.024,-0.0229,-0.0227,-0.0223,-0.0191,-0.0187,-0.0159,-0.0137,-0.0173,-0.017,-0.0164,-0.0091,-0.0081,-0.0075,-0.0032,-0.0039,-0.0037,-0.0035,-0.0033,0.0052,0.0052,0,0,0,0,0,0,-0.0253,-0.0242,-0.0231,-0.0228,-0.0229,-0.0192,-0.0187,-0.0192,-0.0138,-0.013,-0.0164,-0.0162,-0.0086,-0.0078,-0.0071,-0.0046,-0.0036,-0.0033,-0.0031,0.0051,0.0052,0.0052,0,0,0,0,0,0,-0.0254,-0.0253,-0.0233,-0.0233,-0.0228,-0.0192,-0.0198,-0.0192,-0.018,-0.0132,-0.0123,-0.016,-0.0085,-0.0076,-0.0046,-0.0042,-0.0032,-0.0029,0.0051,0.0051,0.0052,-0.0003,0,0,0,0,0,0,-0.0255,-0.0254,-0.0262,-0.0234,-0.0228,-0.0226,-0.0199,-0.0191,-0.0178,-0.0174,-0.0125,-0.0116,-0.0084,-0.0051,-0.0043,-0.0037,-0.0026,0.005,0.0051,0.0052,-0.0002,-0.0004,-0.0007,0,0,0,0,0,-0.0256,-0.0277,-0.0263,-0.0262,-0.0241,-0.0226,-0.0221,-0.0192,-0.0178,-0.0179,-0.0142,-0.0117,-0.004,-0.0049,-0.0039,-0.0033,0.005,0.0051,0.0052,-0.0,-0.0004,-0.0007,0,0,0,0,0,0,-0.0289,-0.0274,-0.0258,-0.0274,-0.0252,-0.0219,-0.022,-0.0198,-0.017,-0.0166,-0.0118,-0.0107,-0.0079,-0.0048,-0.0058,-0.0004,0.0011,0.0014,-0.0031,-0.0034,-0.0037,-0.0041,-0.0024,0,0,0,0,0,-0.03,-0.0311,-0.0283,-0.0295,-0.0288,-0.0253,-0.0243,-0.0224,-0.0195,-0.0183,-0.0147,-0.0105,-0.0068,-0.0047,-0.0014,0.0011,0.006,0.0025,0.0022,0.002,0.0025,0.0092,0.0095,0.0055,0.0055,0.0055,0,0,-0.0316,-0.0309,-0.0314,-0.0302,-0.0284,-0.0282,-0.0246,-0.0239,-0.0229,-0.0177,-0.0157,-0.0118,-0.0065,-0.0036,-0.0019,-0.0009,0.0059,0.0021,0.0018,0.0025,0.0093,0.0097,0.01,0.0055,0.0055,0.0055,0,0,-0.0367,-0.0347,-0.0378,-0.0362,-0.0342,-0.0309,-0.0309,-0.0277,-0.0253,-0.0232,-0.0186,-0.0144,-0.0099,-0.0051,-0.0022,-0.0018,0.0039,-0.0007,-0.0018,0.0046,0.005,0.0054,0.0126,0.0137,-0.0003,-0.0004,-0.0004,0,-0.0387,-0.0395,-0.0383,-0.0404,-0.0367,-0.0326,-0.0319,-0.0308,-0.0268,-0.0234,-0.0235,-0.0141,-0.0103,-0.0042,-0.0041,-0.0023,0.0025,-0.0015,0.0042,0.0047,0.0052,0.0125,0.0138,-0.0006,-0.0006,-0.0006,-0.0005,0,-0.0463,-0.0447,-0.0458,-0.0455,-0.0436,-0.0409,-0.038,-0.0358,-0.0318,-0.0288,-0.0228,-0.0179,-0.011,-0.0098,-0.0071,-0.001,0.0017,0.0025,0.0046,0.0052,0.013,0.0144,-0.001,-0.0009,-0.0008,-0.0007,0,0,-0.0522,-0.0506,-0.0502,-0.0434,-0.0429,-0.0379,-0.0399,-0.0336,-0.0273,-0.0285,-0.0214,-0.0178,-0.014,-0.0104,-0.0058,-0.0012,0.0061,0.0017,0.0021,0.0082,0.0216,0.0269,0.029,0.0077,0.0079,0.0081,0.0257,0,-0.0547,-0.0525,-0.0544,-0.0465,-0.04,-0.0372,-0.0343,-0.0304,-0.0265,-0.0203,-0.0188,-0.0104,-0.0146,-0.0074,-0.0059,0.0038,0.0096,0.0014,0.0207,0.0213,0.0253,0.0307,0.0326,0.0487,0.0271,0.0274,0.0276,0,-0.0591,-0.053,-0.0472,-0.0318,-0.0293,-0.0273,-0.0132,-0.0115,-0.0088,-0.0051,-0.0051,-0.0033,0.0005,-0.0007,0.0096,0.0044,0.0127,0.0187,0.0196,0.0275,0.0292,0.0446,0.0522,0.0598,0.0298,0.0296,0.0295,0,-0.05,-0.0446,-0.0347,-0.0314,-0.0205,-0.0161,-0.0106,-0.0063,0.0004,0.0042,0.0112,0.0096,0.0169,0.0187,0.0237,0.0194,0.037,0.0337,0.0464,0.0469,0.054,0.0548,0.0707,0.0451,0.045,0.045,0.0449,0,-0.043,-0.0328,-0.0282,-0.0201,-0.006,-0.0035,0.0091,0.0128,0.0182,0.0266,0.0214,0.0302,0.0229,0.0283,0.0286,0.0411,0.041,0.0486,0.0526,0.0523,0.0527,0.0639,0.0659,0.0457,0.0455,0.0454,0.0453,0,-0.03,-0.0282,-0.0154,-0.0047,-0.0012,0.009,0.0189,0.0273,0.0345,0.0437,0.0459,0.0489,0.0533,0.0474,0.055,0.0555,0.0706,0.0696,0.069,0.0726,0.0874,0.0889,0.1122,0.1201,0.0853,0.0855,0.0857,0,-0.0199,-0.0133,-0.006,-0.0002,0.0049,0.0176,0.0242,0.0322,0.0382,0.0564,0.0608,0.0694,0.0739,0.0844,0.078,0.0793,0.0852,0.0936,0.0852,0.0915,0.0962,0.0969,0.1018,0.0932,0.0935,0.0937,0.0938,0,-0.0009,-0.0042,0.0018,0.0103,0.0175,0.0275,0.0367,0.0433,0.0524,0.0638,0.0777,0.0854,0.0932,0.0934,0.0975,0.0988,0.1005,0.0983,0.1058,0.1056,0.1069,0.1153,0.0784,0.0957,0.0955,0.0954,0.0953,0.0952,0.0088,0.0107,0.0111,0.0195,0.0265,0.0339,0.0406,0.0493,0.0599,0.0741,0.0816,0.0955,0.1091,0.1097,0.1119,0.1184,0.1154,0.1246,0.1269,0.1278,0.1329,0.1006,0.1209,0.1208,0.1208,0.1208,0.1207,0,0.0217,0.0185,0.0234,0.028,0.0338,0.0372,0.0468,0.0531,0.0627,0.0741,0.0849,0.1044,0.118,0.1264,0.1342,0.1452,0.146,0.1533,0.1533,0.1576,0.1307,0.1282,0.1499,0.1499,0.1499,0.1499,0.1498,0.1498,0.029,0.0291,0.0253,0.0317,0.036,0.0428,0.0465,0.0579,0.0669,0.0845,0.0953,0.1054,0.1277,0.1511,0.1664,0.1693,0.1802,0.1809,0.1883,0.1652,0.1625,0.16,0.1581,0.1857,0.1858,0.2139,0.2142,0.2144]}],[{"header":{"parameterUnit":"m.s-1","parameterCategory":2,"la1":30.2991,"la2":30.254,"lo1":-89.0895,"lo2":-89.0444,"dy":0.0017,"dx":0.0017,"nx":28,"ny":28,"refTime":"2025-03-19T09:00:00:Z","depth":"2","parameterNumber":2,"parameterNumberName":"U-component_of_CURRENTS"},"data":[0,0,0,0,0,0,0,0,0,0,0,0,0,0,0,0,0,0,0,0,0,0,0,0,0,0,0,0,0,0,0,0,0,0,0,0,0,0,0,0,0,0,0,0,0,0,0,0,0,0,0,0,0,0,0,0,0,0,-0.1998,-0.1998,0,-0.1997,-0.1997,-0.1997,-0.198,-0.198,-0.1979,-0.1979,-0.1939,-0.1938,-0.1937,0,0,0,0,0,0,0,0,0,0,0,0,0,-0.1958,-0.1959,-0.1998,-0.1998,-0.1998,-0.1997,-0.1997,-0.1997,-0.198,-0.198,-0.1979,-0.1979,-0.194,-0.1939,-0.1937,0,0,0,0,0,0,0,0,0,0,0,0,0,-0.1966,-0.1959,-0.1998,-0.1992,-0.1992,-0.1997,-0.1997,-0.1996,-0.198,-0.198,-0.1979,-0.1979,-0.194,-0.1939,-0.1937,-0.1933,0,0,-0.1933,-0.1932,0,0,0,0,0,0,0,0,-0.1965,-0.1967,-0.1993,-0.1993,-0.1992,-0.1991,-0.1968,-0.1974,-0.198,-0.1981,-0.1979,-0.1979,-0.1955,-0.1952,-0.1949,-0.1931,-0.193,-0.1933,-0.1932,-0.1931,-0.1931,0,0,0,0,0,0,0,-0.1965,-0.1966,-0.1994,-0.1993,-0.1993,-0.1981,-0.1981,-0.1969,-0.1966,-0.1981,-0.1981,-0.1985,-0.1954,-0.195,-0.1948,-0.1929,-0.1933,-0.1932,-0.1931,-0.193,-0.1922,-0.1923,0,0,0,0,0,0,-0.1973,-0.1966,-0.1995,-0.1995,-0.1981,-0.1982,-0.1983,-0.1989,-0.1967,-0.1965,-0.1986,-0.1985,-0.1953,-0.195,-0.1946,-0.1958,-0.1931,-0.193,-0.1929,-0.1922,-0.1922,-0.1923,0,0,0,0,0,0,-0.1972,-0.1975,-0.1995,-0.1983,-0.1985,-0.1983,-0.1991,-0.1989,-0.1989,-0.1972,-0.1968,-0.1988,-0.1953,-0.1948,-0.1944,-0.1955,-0.193,-0.1928,-0.1921,-0.1922,-0.1923,-0.1969,0,0,0,0,0,0,-0.1971,-0.1975,-0.1978,-0.1983,-0.1986,-0.2008,-0.1991,-0.199,-0.1994,-0.1992,-0.1972,-0.1968,-0.1952,-0.1946,-0.1942,-0.1953,-0.1927,-0.192,-0.1921,-0.1923,-0.1967,-0.1971,-0.1975,0,0,0,0,0,-0.1969,-0.1979,-0.1978,-0.1981,-0.1991,-0.2009,-0.2009,-0.2004,-0.1994,-0.2001,-0.1986,-0.1969,-0.1951,-0.1945,-0.1941,-0.1951,-0.192,-0.1921,-0.1922,-0.1965,-0.197,-0.1975,0,0,0,0,0,0,-0.1962,-0.1979,-0.1978,-0.1991,-0.2003,-0.2007,-0.2011,-0.2009,-0.2002,-0.1997,-0.1975,-0.1971,-0.1972,-0.1956,-0.195,-0.1953,-0.1933,-0.1933,-0.1967,-0.1972,-0.1976,-0.198,-0.1926,0,0,0,0,0,-0.1964,-0.1974,-0.199,-0.1999,-0.2008,-0.2009,-0.2013,-0.2014,-0.2012,-0.2009,-0.1996,-0.1982,-0.1974,-0.1968,-0.1958,-0.1958,-0.1936,-0.1963,-0.1967,-0.1971,-0.1972,-0.1955,-0.1957,-0.1928,-0.1928,-0.1928,0,0,-0.1962,-0.1973,-0.1978,-0.1998,-0.2004,-0.2023,-0.201,-0.2024,-0.2035,-0.2005,-0.201,-0.1996,-0.1978,-0.198,-0.1979,-0.1968,-0.1966,-0.1973,-0.1976,-0.1975,-0.1956,-0.1959,-0.1962,-0.1929,-0.1928,-0.1928,0,0,-0.1972,-0.1978,-0.1992,-0.2008,-0.2026,-0.2032,-0.2039,-0.2049,-0.2049,-0.2056,-0.2037,-0.2031,-0.202,-0.201,-0.2002,-0.2024,-0.1991,-0.2022,-0.2046,-0.2029,-0.2032,-0.2033,-0.2004,-0.2002,-0.2023,-0.2023,-0.2023,0,-0.1969,-0.1991,-0.1999,-0.2022,-0.2038,-0.204,-0.2064,-0.2066,-0.2072,-0.2073,-0.2065,-0.2049,-0.2035,-0.2033,-0.2043,-0.2034,-0.2014,-0.2028,-0.2035,-0.2036,-0.2037,-0.2006,-0.2004,-0.2026,-0.2025,-0.2025,-0.2025,0,-0.1993,-0.2012,-0.2024,-0.2053,-0.2071,-0.2093,-0.2108,-0.2117,-0.2117,-0.2116,-0.2116,-0.2096,-0.2084,-0.2083,-0.207,-0.2072,-0.2052,-0.2043,-0.2022,-0.2043,-0.2009,-0.2006,-0.2029,-0.2028,-0.2027,-0.2027,0,0,-0.1981,-0.2032,-0.2035,-0.2049,-0.2092,-0.2102,-0.2134,-0.2155,-0.2159,-0.2162,-0.2161,-0.2157,-0.2139,-0.213,-0.211,-0.2099,-0.2089,-0.2078,-0.2076,-0.2048,-0.2042,-0.1968,-0.1957,-0.2082,-0.2082,-0.2082,-0.2014,0,-0.1996,-0.2031,-0.2067,-0.21,-0.2115,-0.2146,-0.2172,-0.2188,-0.2193,-0.219,-0.2174,-0.2166,-0.2158,-0.2148,-0.2138,-0.2098,-0.2084,-0.2107,-0.2026,-0.2023,-0.1954,-0.1952,-0.1806,-0.1728,-0.2011,-0.201,-0.201,0,-0.2005,-0.2025,-0.2058,-0.2107,-0.212,-0.2144,-0.2176,-0.2203,-0.2213,-0.2221,-0.2217,-0.2194,-0.2178,-0.2164,-0.2116,-0.2131,-0.2094,-0.2064,-0.206,-0.1972,-0.1943,-0.1753,-0.1711,-0.2004,-0.2005,-0.2005,-0.2006,0,-0.195,-0.2019,-0.2037,-0.2054,-0.2111,-0.2134,-0.2169,-0.2199,-0.2235,-0.223,-0.2254,-0.2213,-0.2195,-0.2155,-0.2098,-0.2107,-0.2031,-0.2032,-0.1929,-0.1923,-0.1772,-0.1752,-0.1998,-0.1998,-0.1998,-0.1998,-0.1998,0,-0.1925,-0.1941,-0.201,-0.2006,-0.2036,-0.2098,-0.213,-0.2162,-0.2225,-0.2274,-0.2259,-0.2269,-0.2195,-0.2145,-0.2094,-0.1992,-0.2027,-0.1925,-0.1899,-0.1783,-0.1766,-0.1988,-0.1988,-0.1995,-0.1996,-0.1997,-0.1997,0,-0.183,-0.1886,-0.1905,-0.1972,-0.1999,-0.2009,-0.2125,-0.2153,-0.2234,-0.2298,-0.2308,-0.2301,-0.2216,-0.2132,-0.2033,-0.1979,-0.1894,-0.1852,-0.1711,-0.167,-0.1798,-0.1801,-0.1726,-0.1723,-0.172,-0.1718,-0.1716,0,-0.1771,-0.1772,-0.1846,-0.1872,-0.19,-0.1953,-0.1998,-0.2118,-0.2172,-0.2324,-0.2339,-0.2293,-0.2233,-0.2042,-0.1865,-0.1714,-0.1803,-0.1544,-0.1538,-0.1788,-0.177,-0.1778,-0.1784,-0.1353,-0.1348,-0.1344,-0.1341,0,-0.1654,-0.1693,-0.1712,-0.176,-0.1809,-0.187,-0.1955,-0.2006,-0.2171,-0.2234,-0.2305,-0.2284,-0.2112,-0.1828,-0.1614,-0.1528,-0.1551,-0.1461,-0.1742,-0.1452,-0.1431,-0.1416,-0.1435,-0.1306,-0.131,-0.1312,-0.1314,-0.1316,-0.1574,-0.1564,-0.1609,-0.1644,-0.1703,-0.1752,-0.1753,-0.1859,-0.192,-0.1983,-0.2116,-0.2011,-0.1936,-0.1467,-0.134,-0.1188,-0.1298,-0.1247,-0.126,-0.1277,-0.1254,-0.1231,-0.1063,-0.1065,-0.1066,-0.1068,-0.1069,0,-0.1478,-0.1486,-0.1503,-0.153,-0.1523,-0.1619,-0.1696,-0.1661,-0.165,-0.1723,-0.1737,-0.1531,-0.1313,-0.1223,-0.0923,-0.0869,-0.0874,-0.0847,-0.0859,-0.0893,-0.0923,-0.0884,-0.0593,-0.0592,-0.0591,-0.059,0,0,-0.1434,-0.1407,-0.1407,-0.1339,-0.1361,-0.1312,-0.1323,-0.129,-0.1284,-0.1215,-0.116,-0.1228,-0.1223,-0.0923,-0.0832,-0.0666,-0.0785,-0.0629,-0.1008,-0.1059,-0.1088,-0.1144,-0.112,0,0,0,0,0]},{"header":{"parameterUnit":"m.s-1","parameterCategory":2,"la1":30.2991,"la2":30.254,"lo1":-89.0895,"lo2":-89.0444,"dy":0.0017,"dx":0.0017,"nx":28,"ny":28,"refTime":"2025-03-19T09:00:00:Z","depth":"2","parameterNumber":3,"parameterNumberName":"V-component_of_CURRENTS"},"data":[0,0,0,0,0,0,0,0,0,0,0,0,0,0,0,0,0,0,0,0,0,0,0,0,0,0,0,0,0,0,0,0,0,0,0,0,0,0,0,0,0,0,0,0,0,0,0,0,0,0,0,0,0,0,0,0,0,0,-0.0263,-0.0262,0,-0.0204,-0.0203,-0.0202,-0.0168,-0.0168,-0.0168,-0.0168,-0.0083,-0.0081,-0.0079,0,0,0,0,0,0,0,0,0,0,0,0,0,-0.0295,-0.0295,-0.0263,-0.0262,-0.0261,-0.0204,-0.0203,-0.0202,-0.0168,-0.0168,-0.0168,-0.0168,-0.0084,-0.0081,-0.0079,0,0,0,0,0,0,0,0,0,0,0,0,0,-0.0263,-0.0295,-0.0263,-0.0238,-0.0235,-0.0204,-0.0203,-0.0202,-0.0168,-0.0168,-0.0168,-0.0168,-0.0085,-0.0081,-0.0078,-0.0062,0,0,-0.0068,-0.0067,0,0,0,0,0,0,0,0,-0.0265,-0.0262,-0.0242,-0.0239,-0.0236,-0.0193,-0.0183,-0.0154,-0.0168,-0.0193,-0.0168,-0.0168,-0.0118,-0.0112,-0.0101,-0.0058,-0.0054,-0.0068,-0.0066,-0.0065,-0.0064,0,0,0,0,0,0,0,-0.0268,-0.0264,-0.0239,-0.0241,-0.0238,-0.0212,-0.0208,-0.0178,-0.0157,-0.0191,-0.0189,-0.0182,-0.0116,-0.0104,-0.0099,-0.0053,-0.0068,-0.0065,-0.0063,-0.0062,0.0019,0.0019,0,0,0,0,0,0,-0.0278,-0.0267,-0.0241,-0.0238,-0.0251,-0.0212,-0.0207,-0.0207,-0.0157,-0.015,-0.0183,-0.0181,-0.011,-0.0103,-0.0096,-0.0072,-0.0065,-0.0062,-0.006,0.0019,0.0019,0.0019,0,0,0,0,0,0,-0.0279,-0.0277,-0.0244,-0.025,-0.0244,-0.0212,-0.0212,-0.0206,-0.0195,-0.0151,-0.0143,-0.0178,-0.011,-0.01,-0.0071,-0.0069,-0.006,-0.0057,0.0018,0.0019,0.0019,-0.0026,0,0,0,0,0,0,-0.028,-0.0278,-0.0282,-0.0251,-0.0244,-0.0231,-0.0212,-0.0205,-0.0192,-0.0189,-0.0145,-0.0137,-0.0109,-0.0076,-0.0068,-0.0064,-0.0055,0.0018,0.0019,0.0019,-0.0025,-0.0028,-0.003,0,0,0,0,0,-0.0282,-0.0293,-0.0283,-0.028,-0.0252,-0.0231,-0.0226,-0.0201,-0.0192,-0.019,-0.0159,-0.0138,-0.0068,-0.0074,-0.0064,-0.0059,0.0018,0.0018,0.0019,-0.0024,-0.0027,-0.003,0,0,0,0,0,0,-0.0308,-0.0289,-0.0278,-0.0282,-0.026,-0.0226,-0.0223,-0.0205,-0.0179,-0.0177,-0.0136,-0.0126,-0.01,-0.0073,-0.008,-0.0034,-0.0021,-0.0018,-0.0057,-0.0059,-0.0062,-0.0069,-0.0052,0,0,0,0,0,-0.0317,-0.0321,-0.0293,-0.0296,-0.0288,-0.0256,-0.0245,-0.0228,-0.02,-0.0189,-0.0157,-0.0122,-0.009,-0.0071,-0.0041,-0.0015,0.0017,-0.0005,-0.0007,-0.0009,-0.0008,0.004,0.0041,0.0021,0.0021,0.0021,0,0,-0.0327,-0.0318,-0.0319,-0.0301,-0.0283,-0.0272,-0.0249,-0.0237,-0.0224,-0.0183,-0.016,-0.0131,-0.0086,-0.006,-0.0045,-0.0036,0.0014,-0.0009,-0.0011,-0.0009,0.004,0.0042,0.0044,0.0021,0.0021,0.0021,0,0,-0.0349,-0.0342,-0.0351,-0.0334,-0.0313,-0.0291,-0.0289,-0.0257,-0.0241,-0.0216,-0.0184,-0.0153,-0.0107,-0.0072,-0.0048,-0.0044,-0.0004,-0.0035,-0.0047,-0.0001,0.0001,0.0003,0.0043,0.0049,-0.0031,-0.0032,-0.0032,0,-0.0362,-0.0373,-0.0348,-0.0347,-0.0341,-0.0301,-0.0304,-0.0276,-0.0238,-0.0222,-0.0216,-0.0144,-0.011,-0.0067,-0.0067,-0.0049,-0.0019,-0.0043,-0.0005,-0.0002,0.0001,0.0042,0.0049,-0.0034,-0.0033,-0.0033,-0.0033,0,-0.0386,-0.0393,-0.0398,-0.0385,-0.0367,-0.037,-0.0327,-0.0305,-0.0283,-0.0253,-0.0215,-0.017,-0.0123,-0.011,-0.0087,-0.0047,-0.0032,-0.0019,-0.0002,-0.0,0.0043,0.0052,-0.0037,-0.0036,-0.0035,-0.0035,0,0,-0.0434,-0.0421,-0.0425,-0.0438,-0.0396,-0.0396,-0.0356,-0.0324,-0.0307,-0.0263,-0.0237,-0.0185,-0.0157,-0.0129,-0.0093,-0.0055,-0.0012,-0.0032,-0.0029,0.0001,0.0088,0.0098,0.0109,0.0007,0.0008,0.0009,0.0108,0,-0.047,-0.0499,-0.0466,-0.0488,-0.0505,-0.0446,-0.0421,-0.0376,-0.0329,-0.0288,-0.0227,-0.0193,-0.0163,-0.0147,-0.01,-0.0035,0.0009,-0.004,0.0088,0.0092,0.0096,0.0118,0.0081,0.0166,0.0117,0.0118,0.0119,0,-0.0516,-0.0535,-0.0568,-0.0569,-0.0569,-0.0561,-0.0522,-0.0492,-0.0398,-0.036,-0.0291,-0.0231,-0.016,-0.0143,-0.0019,-0.0052,0.0015,0.0065,0.007,0.0102,0.0118,0.0159,0.0184,0.0134,0.0133,0.0131,0.013,0,-0.0604,-0.0613,-0.0655,-0.0654,-0.063,-0.0627,-0.0608,-0.0524,-0.0505,-0.0402,-0.0369,-0.0262,-0.0219,-0.0116,0.0004,-0.0006,0.0138,0.0142,0.0217,0.0219,0.0225,0.0224,0.0232,0.0232,0.0231,0.0231,0.0231,0,-0.0676,-0.0713,-0.0708,-0.0736,-0.0773,-0.0722,-0.073,-0.0672,-0.06,-0.0557,-0.0426,-0.0355,-0.0212,-0.0098,0.0006,0.0142,0.0149,0.0223,0.0249,0.0207,0.0204,0.0205,0.02,0.0235,0.0234,0.0233,0.0233,0,-0.0763,-0.0763,-0.0813,-0.0815,-0.0819,-0.0846,-0.0824,-0.0816,-0.0732,-0.0662,-0.0631,-0.0441,-0.0279,-0.0131,0.0046,0.0135,0.0268,0.0314,0.0253,0.027,0.0316,0.0308,0.0408,0.041,0.0411,0.0412,0.0412,0,-0.0816,-0.0851,-0.0882,-0.0913,-0.0919,-0.0947,-0.0952,-0.089,-0.0866,-0.0693,-0.0661,-0.048,-0.0326,-0.0067,0.0112,0.0294,0.0304,0.0372,0.0347,0.0321,0.0336,0.0327,0.0318,0.0339,0.0339,0.0339,0.0339,0,-0.0903,-0.0907,-0.0942,-0.1007,-0.1037,-0.1062,-0.1064,-0.1066,-0.0953,-0.0877,-0.0711,-0.0573,-0.0288,-0.0072,0.0161,0.0271,0.0337,0.0379,0.0387,0.0292,0.0262,0.0274,0.0267,0.034,0.034,0.034,0.034,0.034,-0.0961,-0.0997,-0.1039,-0.1093,-0.1133,-0.1158,-0.1169,-0.1136,-0.1091,-0.0925,-0.0787,-0.0541,-0.0322,0.0021,0.0197,0.0372,0.036,0.0406,0.0403,0.0401,0.0368,0.034,0.0427,0.0427,0.0428,0.0428,0.0428,0,-0.1027,-0.1059,-0.1121,-0.1178,-0.1225,-0.1228,-0.1224,-0.1188,-0.1118,-0.0926,-0.0777,-0.0499,-0.0251,0.0007,0.0269,0.0407,0.0398,0.0444,0.0397,0.0394,0.0392,0.0357,0.0415,0.0415,0.0416,0.0417,0,0,-0.1066,-0.1126,-0.1148,-0.1241,-0.1283,-0.1311,-0.1304,-0.1216,-0.1077,-0.088,-0.0685,-0.0502,-0.02,-0.0024,0.0143,0.03,0.0318,0.032,0.031,0.0229,0.0226,0.0343,0.0282,0,0,0,0,0]}],[{"header":{"parameterUnit":"m.s-1","parameterCategory":2,"la1":30.2991,"la2":30.254,"lo1":-89.0895,"lo2":-89.0444,"dy":0.0017,"dx":0.0017,"nx":28,"ny":28,"refTime":"2025-03-19T09:00:00:Z","depth":"4","parameterNumber":2,"parameterNumberName":"U-component_of_CURRENTS"},"data":[0,0,0,0,0,0,0,0,0,0,0,0,0,0,0,0,0,0,0,0,0,0,0,0,0,0,0,0,0,0,0,0,0,0,0,0,0,0,0,0,0,0,0,0,0,0,0,0,0,0,0,0,0,0,0,0,0,0,-0.1459,-0.146,0,-0.1506,-0.1506,-0.1507,-0.1544,-0.1544,-0.1545,-0.1545,-0.1586,-0.1586,-0.1587,0,0,0,0,0,0,0,0,0,0,0,0,0,-0.1397,-0.1398,-0.1459,-0.146,-0.1461,-0.1506,-0.1506,-0.1507,-0.1544,-0.1544,-0.1545,-0.1545,-0.1586,-0.1586,-0.1587,0,0,0,0,0,0,0,0,0,0,0,0,0,-0.143,-0.1398,-0.1459,-0.1486,-0.1489,-0.1506,-0.1506,-0.1507,-0.1543,-0.1544,-0.1545,-0.1546,-0.1585,-0.1586,-0.1587,-0.1577,0,0,-0.159,-0.159,0,0,0,0,0,0,0,0,-0.1428,-0.1432,-0.1481,-0.1484,-0.1487,-0.1521,-0.1499,-0.1531,-0.1543,-0.1521,-0.1545,-0.1546,-0.1564,-0.1567,-0.1572,-0.1579,-0.1581,-0.159,-0.1591,-0.1591,-0.1591,0,0,0,0,0,0,0,-0.1426,-0.1431,-0.1476,-0.1482,-0.1486,-0.1494,-0.1499,-0.1505,-0.1536,-0.1523,-0.1526,-0.1534,-0.1566,-0.1571,-0.1573,-0.1581,-0.159,-0.1591,-0.1591,-0.1592,-0.1644,-0.1645,0,0,0,0,0,0,-0.1423,-0.1428,-0.1475,-0.1478,-0.1461,-0.1494,-0.15,-0.1508,-0.1536,-0.1542,-0.1533,-0.1535,-0.1569,-0.1572,-0.1574,-0.1624,-0.1591,-0.1592,-0.1592,-0.1643,-0.1644,-0.1645,0,0,0,0,0,0,-0.1422,-0.1427,-0.1473,-0.1455,-0.1462,-0.1495,-0.1503,-0.1509,-0.1541,-0.1544,-0.155,-0.1563,-0.1569,-0.1573,-0.1604,-0.1623,-0.1592,-0.1593,-0.1642,-0.1643,-0.1644,-0.1684,0,0,0,0,0,0,-0.142,-0.1426,-0.1442,-0.1455,-0.1463,-0.1502,-0.1503,-0.1509,-0.1543,-0.1547,-0.1571,-0.1574,-0.157,-0.1603,-0.1605,-0.1624,-0.1594,-0.1641,-0.1642,-0.1644,-0.1681,-0.1686,-0.169,0,0,0,0,0,-0.1417,-0.1434,-0.1443,-0.1449,-0.148,-0.1503,-0.1508,-0.1532,-0.1544,-0.1563,-0.1579,-0.1575,-0.1614,-0.1604,-0.1606,-0.1626,-0.164,-0.1642,-0.1644,-0.1679,-0.1685,-0.169,0,0,0,0,0,0,-0.142,-0.144,-0.145,-0.1474,-0.1496,-0.151,-0.1533,-0.1547,-0.1574,-0.1585,-0.1587,-0.1591,-0.1623,-0.162,-0.1609,-0.1646,-0.1626,-0.1628,-0.1652,-0.1657,-0.1662,-0.1655,-0.1594,0,0,0,0,0,-0.1427,-0.1444,-0.1463,-0.1486,-0.1499,-0.152,-0.1537,-0.1554,-0.1574,-0.1589,-0.1604,-0.1618,-0.1628,-0.1641,-0.1648,-0.1671,-0.165,-0.1684,-0.1689,-0.1693,-0.1689,-0.1681,-0.1684,-0.1651,-0.1651,-0.1651,0,0,-0.1435,-0.1448,-0.146,-0.1488,-0.1507,-0.1526,-0.1533,-0.1567,-0.1587,-0.1587,-0.1627,-0.1636,-0.1637,-0.1662,-0.1676,-0.1666,-0.169,-0.1695,-0.1698,-0.1693,-0.1683,-0.1687,-0.1689,-0.1652,-0.1652,-0.1652,0,0,-0.1445,-0.1473,-0.1485,-0.1505,-0.1538,-0.1551,-0.1567,-0.1596,-0.1618,-0.1651,-0.1654,-0.1677,-0.1699,-0.1702,-0.1704,-0.1737,-0.1714,-0.1745,-0.1765,-0.1758,-0.176,-0.1762,-0.1733,-0.1732,-0.1749,-0.1749,-0.1749,0,-0.1458,-0.1474,-0.1494,-0.151,-0.1535,-0.1564,-0.1588,-0.1607,-0.1645,-0.1664,-0.1671,-0.1706,-0.1713,-0.173,-0.1745,-0.1747,-0.1732,-0.1745,-0.1763,-0.1765,-0.1766,-0.1736,-0.1734,-0.1751,-0.1751,-0.175,-0.175,0,-0.1461,-0.1491,-0.1504,-0.1532,-0.156,-0.1591,-0.1619,-0.1654,-0.1685,-0.17,-0.1739,-0.1747,-0.1766,-0.1774,-0.1771,-0.1788,-0.177,-0.1769,-0.1748,-0.1771,-0.1738,-0.1736,-0.1754,-0.1753,-0.1753,-0.1752,0,0,-0.1455,-0.1499,-0.1508,-0.1529,-0.1581,-0.16,-0.1644,-0.1686,-0.1713,-0.1747,-0.1772,-0.1798,-0.1808,-0.181,-0.1812,-0.1808,-0.1805,-0.1797,-0.1796,-0.1764,-0.1775,-0.166,-0.1645,-0.1811,-0.1811,-0.1811,-0.1745,0,-0.1459,-0.1484,-0.1515,-0.156,-0.1579,-0.1633,-0.1668,-0.171,-0.1746,-0.1776,-0.179,-0.1814,-0.1818,-0.1833,-0.1832,-0.1812,-0.1802,-0.1822,-0.1759,-0.1757,-0.1649,-0.164,-0.1811,-0.1743,-0.1742,-0.1742,-0.1741,0,-0.1451,-0.1471,-0.1507,-0.1573,-0.159,-0.1624,-0.1696,-0.1732,-0.1779,-0.1807,-0.1835,-0.1844,-0.1851,-0.1848,-0.1822,-0.1837,-0.1811,-0.1789,-0.1786,-0.1661,-0.1637,-0.1716,-0.1736,-0.1737,-0.1737,-0.1738,-0.1738,0,-0.1407,-0.1472,-0.1501,-0.1522,-0.1592,-0.1633,-0.1681,-0.1742,-0.1771,-0.1824,-0.1843,-0.1858,-0.1858,-0.184,-0.1804,-0.1819,-0.1753,-0.1766,-0.1633,-0.1625,-0.1732,-0.1731,-0.1741,-0.1741,-0.1741,-0.1741,-0.1741,0,-0.1378,-0.1411,-0.1487,-0.1495,-0.1541,-0.1613,-0.1663,-0.1715,-0.1776,-0.1793,-0.1853,-0.1852,-0.1859,-0.1826,-0.1798,-0.169,-0.1748,-0.1621,-0.1596,-0.175,-0.1751,-0.173,-0.1729,-0.1739,-0.1739,-0.174,-0.174,0,-0.1305,-0.1361,-0.1397,-0.1482,-0.1513,-0.1542,-0.1636,-0.1661,-0.1747,-0.1768,-0.1785,-0.1834,-0.1788,-0.1765,-0.1715,-0.1659,-0.1586,-0.1538,-0.1681,-0.1669,-0.1465,-0.1468,-0.1378,-0.1373,-0.1369,-0.1366,-0.1363,0,-0.1254,-0.1268,-0.1357,-0.1378,-0.1418,-0.1479,-0.1513,-0.162,-0.1645,-0.1739,-0.1728,-0.1728,-0.1734,-0.1561,-0.1567,-0.1472,-0.1462,-0.1423,-0.1461,-0.144,-0.1427,-0.1436,-0.1444,-0.1357,-0.1356,-0.1355,-0.1354,0,-0.1165,-0.1215,-0.1241,-0.1276,-0.1319,-0.1354,-0.1419,-0.1424,-0.1537,-0.1631,-0.1618,-0.159,-0.1525,-0.1472,-0.1395,-0.1345,-0.1449,-0.1381,-0.139,-0.1426,-0.1414,-0.1406,-0.1419,-0.134,-0.1342,-0.1343,-0.1344,0,-0.1105,-0.11,-0.1145,-0.1162,-0.1206,-0.1207,-0.1262,-0.1295,-0.1337,-0.1462,-0.1449,-0.1463,-0.1508,-0.1404,-0.1344,-0.1265,-0.1253,-0.1231,-0.1247,-0.1263,-0.1253,-0.1223,-0.1052,0,0,0,0,0,-0.1041,-0.1023,-0.1028,-0.1037,-0.107,-0.1092,-0.1184,-0.1249,-0.136,-0.1311,-0.1381,-0.1325,-0.1255,-0.1271,-0.1156,-0.1263,-0.1238,-0.1127,-0.1218,-0.1263,-0.1279,-0.1278,0,0,0,0,0,0,-0.1001,-0.1006,-0.0988,-0.092,-0.0898,-0.0922,-0.0972,-0.1058,-0.105,-0.1174,-0.1134,-0.1237,-0.1169,-0.1269,-0.112,-0.1119,-0.115,-0.1147,-0.1143,-0.1254,-0.1269,-0.1282,-0.1286,0,0,0,0,0]},{"header":{"parameterUnit":"m.s-1","parameterCategory":2,"la1":30.2991,"la2":30.254,"lo1":-89.0895,"lo2":-89.0444,"dy":0.0017,"dx":0.0017,"nx":28,"ny":28,"refTime":"2025-03-19T09:00:00:Z","depth":"4","parameterNumber":3,"parameterNumberName":"V-component_of_CURRENTS"},"data":[0,0,0,0,0,0,0,0,0,0,0,0,0,0,0,0,0,0,0,0,0,0,0,0,0,0,0,0,0,0,0,0,0,0,0,0,0,0,0,0,0,0,0,0,0,0,0,0,0,0,0,0,0,0,0,0,0,0,-0.0139,-0.0139,0,-0.0095,-0.0095,-0.0094,-0.0076,-0.0077,-0.0077,-0.0077,-0.0013,-0.0011,-0.0009,0,0,0,0,0,0,0,0,0,0,0,0,0,-0.0175,-0.0174,-0.014,-0.0139,-0.0138,-0.0095,-0.0095,-0.0094,-0.0076,-0.0077,-0.0077,-0.0077,-0.0013,-0.0011,-0.0009,0,0,0,0,0,0,0,0,0,0,0,0,0,-0.0147,-0.0174,-0.014,-0.0125,-0.0123,-0.0095,-0.0095,-0.0094,-0.0076,-0.0077,-0.0077,-0.0077,-0.0014,-0.0011,-0.0009,0.0013,0,0,-0.0,0.0001,0,0,0,0,0,0,0,0,-0.0149,-0.0146,-0.0127,-0.0126,-0.0124,-0.0092,-0.0083,-0.0057,-0.0076,-0.0094,-0.0077,-0.0077,-0.0037,-0.0033,-0.0024,0.0016,0.0019,0.0,0.0002,0.0003,0.0004,0,0,0,0,0,0,0,-0.0151,-0.0148,-0.0122,-0.0127,-0.0125,-0.0109,-0.0105,-0.0078,-0.0064,-0.0092,-0.0091,-0.0086,-0.0036,-0.0026,-0.0022,0.002,0.0,0.0002,0.0004,0.0005,0.0074,0.0074,0,0,0,0,0,0,-0.0159,-0.015,-0.0123,-0.012,-0.0138,-0.0108,-0.0104,-0.0102,-0.0065,-0.006,-0.0086,-0.0086,-0.0031,-0.0025,-0.002,-0.0002,0.0003,0.0006,0.0007,0.0073,0.0074,0.0074,0,0,0,0,0,0,-0.016,-0.0157,-0.0125,-0.0134,-0.0129,-0.0107,-0.0104,-0.0101,-0.0094,-0.0061,-0.0055,-0.0085,-0.0031,-0.0023,-0.0,0.0001,0.0007,0.0009,0.0073,0.0073,0.0074,0.0041,0,0,0,0,0,0,-0.0161,-0.0158,-0.0161,-0.0135,-0.0129,-0.0113,-0.0104,-0.01,-0.0091,-0.009,-0.0057,-0.0051,-0.0031,-0.0005,0.0002,0.0005,0.0011,0.0073,0.0073,0.0074,0.0042,0.004,0.0038,0,0,0,0,0,-0.0162,-0.0165,-0.0161,-0.0158,-0.0133,-0.0113,-0.0109,-0.0094,-0.0091,-0.0089,-0.0068,-0.0053,0.0002,-0.0002,0.0006,0.001,0.0073,0.0073,0.0074,0.0043,0.004,0.0038,0,0,0,0,0,0,-0.0179,-0.0162,-0.0158,-0.0155,-0.0138,-0.0111,-0.0108,-0.0097,-0.0078,-0.0079,-0.0049,-0.0041,-0.0022,-0.0,-0.0006,0.003,0.004,0.0042,0.0013,0.0012,0.001,0.0003,0.0014,0,0,0,0,0,-0.0185,-0.0185,-0.0163,-0.0161,-0.0155,-0.0133,-0.0125,-0.0114,-0.0093,-0.0086,-0.0062,-0.0036,-0.0013,0.0003,0.0025,0.0049,0.0068,0.0057,0.0055,0.0053,0.0053,0.0082,0.0083,0.0075,0.0075,0.0075,0,0,-0.019,-0.0182,-0.0181,-0.0165,-0.0153,-0.0141,-0.0129,-0.0119,-0.0108,-0.008,-0.0062,-0.0043,-0.0009,0.0012,0.0024,0.0031,0.0065,0.0054,0.0052,0.0053,0.0083,0.0083,0.0084,0.0075,0.0075,0.0075,0,0,-0.0197,-0.0195,-0.0195,-0.0183,-0.0168,-0.0153,-0.0152,-0.0128,-0.0118,-0.0097,-0.0078,-0.0058,-0.0018,0.0004,0.0022,0.0027,0.0051,0.0034,0.0025,0.0053,0.0053,0.0054,0.0073,0.0076,0.0037,0.0037,0.0037,0,-0.0205,-0.0212,-0.0192,-0.0186,-0.0188,-0.016,-0.0164,-0.0138,-0.0109,-0.0104,-0.0096,-0.0047,-0.0021,0.0007,0.0008,0.0023,0.0039,0.0028,0.005,0.0051,0.0053,0.0072,0.0076,0.0036,0.0036,0.0036,0.0036,0,-0.0209,-0.0219,-0.022,-0.0209,-0.0196,-0.0203,-0.0168,-0.0153,-0.0141,-0.0119,-0.0098,-0.0062,-0.0035,-0.0021,-0.0003,0.002,0.0028,0.0039,0.0052,0.0051,0.0072,0.0076,0.0033,0.0034,0.0034,0.0035,0,0,-0.0238,-0.0229,-0.0235,-0.0256,-0.0223,-0.0227,-0.0193,-0.0176,-0.0174,-0.0131,-0.0125,-0.0078,-0.0063,-0.0043,-0.0017,0.0012,0.0035,0.0028,0.003,0.0042,0.009,0.0059,0.0061,0.0049,0.005,0.0051,0.0097,0,-0.0265,-0.0288,-0.0262,-0.0291,-0.0312,-0.0273,-0.0256,-0.0225,-0.0193,-0.0171,-0.0121,-0.0105,-0.0068,-0.0067,-0.0027,0.0015,0.0046,0.0021,0.0094,0.0096,0.0064,0.0065,0.0053,0.0101,0.0102,0.0103,0.0103,0,-0.0297,-0.0316,-0.0352,-0.0378,-0.0382,-0.038,-0.0375,-0.0352,-0.0284,-0.026,-0.0207,-0.0161,-0.0106,-0.0082,0.0008,-0.0011,0.0037,0.0075,0.0078,0.0064,0.0073,0.0105,0.0111,0.0111,0.011,0.011,0.0109,0,-0.0377,-0.0395,-0.0443,-0.0447,-0.0442,-0.0453,-0.0447,-0.039,-0.0385,-0.0314,-0.0304,-0.0214,-0.0192,-0.0102,-0.0011,-0.0002,0.0081,0.0104,0.0125,0.0123,0.0152,0.0151,0.0166,0.0166,0.0166,0.0165,0.0165,0,-0.0441,-0.0487,-0.0494,-0.0523,-0.0576,-0.0543,-0.0574,-0.0535,-0.0493,-0.0487,-0.037,-0.0347,-0.0197,-0.0121,-0.0026,0.0056,0.0073,0.0121,0.0133,0.0136,0.0133,0.0155,0.0153,0.0167,0.0167,0.0166,0.0166,0,-0.0517,-0.0525,-0.0583,-0.0604,-0.0616,-0.0651,-0.0659,-0.0666,-0.0623,-0.0604,-0.0587,-0.0457,-0.0349,-0.0206,-0.0066,0.001,0.0106,0.0129,0.0111,0.0121,0.0137,0.0133,0.0167,0.0166,0.0165,0.0165,0.0164,0,-0.0558,-0.0595,-0.0643,-0.0675,-0.0689,-0.0733,-0.0751,-0.0727,-0.0717,-0.0671,-0.0659,-0.056,-0.0457,-0.0272,-0.0127,0.0053,0.0077,0.0126,0.0151,0.0129,0.0138,0.0134,0.0131,0.0163,0.0163,0.0163,0.0163,0,-0.0626,-0.0641,-0.0676,-0.0739,-0.078,-0.0817,-0.0839,-0.0847,-0.0807,-0.0789,-0.0705,-0.0587,-0.0469,-0.0285,-0.0154,-0.0024,0.01,0.0121,0.0124,0.0147,0.0125,0.0134,0.0132,0.0161,0.0161,0.0161,0.0162,0,-0.0667,-0.0698,-0.074,-0.0787,-0.0843,-0.0872,-0.0881,-0.0861,-0.0853,-0.0783,-0.0765,-0.0617,-0.0522,-0.0329,-0.021,-0.0083,-0.0041,0.001,0.002,0.0024,-0.003,-0.0079,-0.0099,0,0,0,0,0,-0.0703,-0.0728,-0.0782,-0.083,-0.0883,-0.0907,-0.092,-0.0911,-0.0885,-0.0828,-0.0791,-0.0669,-0.0473,-0.038,-0.0256,-0.023,-0.0033,-0.0084,0.0027,0.0149,0.0152,0.0111,0,0,0,0,0,0,-0.0725,-0.0775,-0.0786,-0.0852,-0.0888,-0.0937,-0.0942,-0.0922,-0.0867,-0.0827,-0.0708,-0.0654,-0.0451,-0.0547,-0.026,-0.0224,-0.014,0.0011,0.0013,0.0148,0.015,0.0152,0.0111,0,0,0,0,0]}]]